Time,TemperatureF,DewpointF,PressureIn,WindDirection,WindDirectionDegrees,WindSpeedMPH,WindSpeedGustMPH,Humidity,HourlyPrecipIn,Conditions,Clouds,dailyrainin,SoftwareType,DateUTC
2013-03-14 00:11:00,48.0,30.0,30.10,NW,320,8.0,-999.0,49,0.00,,,-99.99,,2013-03-14 04:11:00,
2013-03-14 00:31:00,48.0,28.0,30.11,NNW,340,8.0,-999.0,46,0.00,,,-99.99,,2013-03-14 04:31:00,
2013-03-14 00:41:00,48.0,28.0,30.11,NNW,340,8.0,-999.0,46,0.00,,,-99.99,,2013-03-14 04:41:00,
2013-03-14 00:52:00,48.0,28.0,30.11,NNW,340,10.0,-999.0,46,0.00,,,-99.99,,2013-03-14 04:52:00,
2013-03-14 01:01:00,48.0,28.0,30.11,NNW,340,10.0,-999.0,46,0.00,,,-99.99,,2013-03-14 05:01:00,
2013-03-14 01:21:00,46.0,28.0,30.13,North,350,7.0,-999.0,49,0.00,,,-99.99,,2013-03-14 05:21:00,
2013-03-14 01:32:00,45.0,27.0,30.14,North,350,6.0,-999.0,48,0.00,,,-99.99,,2013-03-14 05:32:00,
2013-03-14 01:41:00,45.0,27.0,30.14,North,350,6.0,-999.0,48,0.00,,,-99.99,,2013-03-14 05:41:00,
2013-03-14 01:51:00,45.0,27.0,30.14,NNW,330,5.0,-999.0,48,0.00,,,-99.99,,2013-03-14 05:51:00,
2013-03-14 02:01:00,45.0,27.0,30.14,NNW,330,5.0,-999.0,48,0.00,,,-99.99,,2013-03-14 06:01:00,
2013-03-14 02:21:00,45.0,27.0,30.14,NNW,340,7.0,-999.0,48,0.00,,,-99.99,,2013-03-14 06:21:00,
2013-03-14 02:31:00,43.0,27.0,30.14,NNW,340,9.0,-999.0,52,0.00,,,-99.99,,2013-03-14 06:31:00,
2013-03-14 02:41:00,43.0,27.0,30.14,NNW,340,9.0,-999.0,52,0.00,,,-99.99,,2013-03-14 06:41:00,
2013-03-14 03:21:00,41.0,25.0,30.16,NNW,340,9.0,-999.0,52,0.00,,,-99.99,,2013-03-14 07:21:00,
2013-03-14 03:31:00,41.0,25.0,30.16,NNW,340,9.0,-999.0,52,0.00,,,-99.99,,2013-03-14 07:31:00,
2013-03-14 03:41:00,41.0,25.0,30.16,NNW,340,9.0,-999.0,52,0.00,,,-99.99,,2013-03-14 07:41:00,
2013-03-14 03:52:00,39.0,25.0,30.17,NNW,330,6.0,-999.0,55,0.00,,,-99.99,,2013-03-14 07:52:00,
2013-03-14 04:01:00,39.0,25.0,30.17,NNW,330,6.0,-999.0,55,0.00,,,-99.99,,2013-03-14 08:01:00,
2013-03-14 04:11:00,39.0,25.0,30.17,NNW,330,6.0,-999.0,55,0.00,,,-99.99,,2013-03-14 08:11:00,
2013-03-14 04:31:00,39.0,25.0,30.18,NNW,340,5.0,-999.0,55,0.00,,,-99.99,,2013-03-14 08:31:00,
2013-03-14 04:41:00,39.0,25.0,30.18,NNW,340,5.0,-999.0,55,0.00,,,-99.99,,2013-03-14 08:41:00,
2013-03-14 04:51:00,37.0,25.0,30.18,NNW,330,5.0,-999.0,60,0.00,,,-99.99,,2013-03-14 08:51:00,
2013-03-14 05:01:00,37.0,25.0,30.18,NNW,330,5.0,-999.0,60,0.00,,,-99.99,,2013-03-14 09:01:00,
2013-03-14 05:11:00,37.0,25.0,30.18,NNW,330,5.0,-999.0,60,0.00,,,-99.99,,2013-03-14 09:11:00,
2013-03-14 05:22:00,37.0,25.0,30.19,NNW,340,6.0,-999.0,60,0.00,,,-99.99,,2013-03-14 09:22:00,
2013-03-14 05:31:00,36.0,25.0,30.19,North,350,5.0,-999.0,64,0.00,,,-99.99,,2013-03-14 09:31:00,
2013-03-14 05:41:00,36.0,25.0,30.19,North,350,5.0,-999.0,64,0.00,,,-99.99,,2013-03-14 09:41:00,
2013-03-14 05:51:00,37.0,25.0,30.20,North,350,7.0,-999.0,60,0.00,,,-99.99,,2013-03-14 09:51:00,
2013-03-14 06:01:00,37.0,25.0,30.20,North,350,7.0,-999.0,60,0.00,,,-99.99,,2013-03-14 10:01:00,
2013-03-14 06:21:00,36.0,27.0,30.21,North,350,6.0,-999.0,69,0.00,,,-99.99,,2013-03-14 10:21:00,
2013-03-14 06:31:00,36.0,25.0,30.22,North,350,5.0,-999.0,64,0.00,,,-99.99,,2013-03-14 10:31:00,
2013-03-14 06:51:00,36.0,25.0,30.23,North,350,6.0,-999.0,64,0.00,,,-99.99,,2013-03-14 10:51:00,
2013-03-14 07:01:00,36.0,25.0,30.23,North,350,6.0,-999.0,64,0.00,,,-99.99,,2013-03-14 11:01:00,
2013-03-14 07:11:00,36.0,25.0,30.23,North,350,6.0,-999.0,64,0.00,,,-99.99,,2013-03-14 11:11:00,
2013-03-14 07:21:00,36.0,25.0,30.24,North,350,7.0,-999.0,64,0.00,,,-99.99,,2013-03-14 11:21:00,
2013-03-14 07:31:00,36.0,25.0,30.26,North,10,8.0,-999.0,64,0.00,,,-99.99,,2013-03-14 11:31:00,
2013-03-14 07:41:00,36.0,25.0,30.26,North,10,8.0,-999.0,64,0.00,,,-99.99,,2013-03-14 11:41:00,
2013-03-14 07:52:00,36.0,25.0,30.26,North,10,8.0,-999.0,64,0.00,,,-99.99,,2013-03-14 11:52:00,
2013-03-14 08:01:00,36.0,25.0,30.26,North,10,8.0,-999.0,64,0.00,,,-99.99,,2013-03-14 12:01:00,
2013-03-14 08:11:00,36.0,25.0,30.26,North,10,8.0,-999.0,64,0.00,,,0.00,,2013-03-14 12:11:00,
2013-03-14 08:21:00,36.0,25.0,30.28,NNW,330,3.0,-999.0,64,0.00,,,0.00,,2013-03-14 12:21:00,
2013-03-14 08:31:00,36.0,25.0,30.29,North,350,6.0,-999.0,64,0.00,,,0.00,,2013-03-14 12:31:00,
2013-03-14 08:41:00,36.0,25.0,30.29,North,350,6.0,-999.0,64,0.00,,,0.00,,2013-03-14 12:41:00,
2013-03-14 08:51:00,37.0,23.0,30.30,North,360,7.0,-999.0,55,0.00,,,0.00,,2013-03-14 12:51:00,
2013-03-14 09:01:00,37.0,23.0,30.30,North,360,7.0,-999.0,55,0.00,,,0.00,,2013-03-14 13:01:00,
2013-03-14 09:21:00,39.0,21.0,30.31,North,360,8.0,-999.0,48,0.00,,,-99.99,,2013-03-14 13:21:00,
2013-03-14 09:31:00,39.0,21.0,30.30,North,350,12.0,-999.0,48,0.00,,,-99.99,,2013-03-14 13:31:00,
2013-03-14 09:41:00,39.0,21.0,30.30,North,350,12.0,-999.0,48,0.00,,,-99.99,,2013-03-14 13:41:00,
2013-03-14 09:52:00,39.0,21.0,30.31,North,360,9.0,18.0,48,0.00,,,-99.99,,2013-03-14 13:52:00,
2013-03-14 10:01:00,39.0,21.0,30.31,North,360,9.0,18.0,48,0.00,,,-99.99,,2013-03-14 14:01:00,
2013-03-14 10:11:00,39.0,21.0,30.31,North,360,9.0,18.0,48,0.00,,,-99.99,,2013-03-14 14:11:00,
2013-03-14 10:21:00,41.0,19.0,30.31,North,360,13.0,21.0,41,0.00,,,-99.99,,2013-03-14 14:21:00,
2013-03-14 10:31:00,43.0,21.0,30.31,North,350,15.0,18.0,41,0.00,,,-99.99,,2013-03-14 14:31:00,
2013-03-14 10:42:00,43.0,21.0,30.31,North,350,15.0,18.0,41,0.00,,,-99.99,,2013-03-14 14:42:00,
2013-03-14 10:51:00,43.0,21.0,30.30,North,10,13.0,18.0,41,0.00,,,-99.99,,2013-03-14 14:51:00,
2013-03-14 11:01:00,43.0,21.0,30.30,North,10,13.0,18.0,41,0.00,,,-99.99,,2013-03-14 15:01:00,
2013-03-14 11:21:00,45.0,21.0,30.30,NNW,330,12.0,17.0,39,0.00,,,-99.99,,2013-03-14 15:21:00,
2013-03-14 11:32:00,45.0,19.0,30.29,NW,320,12.0,22.0,36,0.00,,,-99.99,,2013-03-14 15:32:00,
2013-03-14 11:42:00,45.0,19.0,30.29,NW,320,12.0,22.0,36,0.00,,,-99.99,,2013-03-14 15:42:00,
2013-03-14 11:52:00,45.0,21.0,30.29,North,350,13.0,18.0,39,0.00,,,-99.99,,2013-03-14 15:52:00,
2013-03-14 12:02:00,45.0,21.0,30.29,North,350,13.0,18.0,39,0.00,,,-99.99,,2013-03-14 16:02:00,
2013-03-14 12:12:00,45.0,21.0,30.29,North,350,13.0,18.0,39,0.00,,,-99.99,,2013-03-14 16:12:00,
2013-03-14 12:22:00,46.0,21.0,30.28,North,350,14.0,20.0,36,0.00,,,-99.99,,2013-03-14 16:22:00,
2013-03-14 12:32:00,46.0,21.0,30.27,NNW,340,13.0,17.0,36,0.00,,,-99.99,,2013-03-14 16:32:00,
2013-03-14 12:41:00,46.0,21.0,30.27,NNW,340,13.0,17.0,36,0.00,,,-99.99,,2013-03-14 16:41:00,
2013-03-14 12:51:00,48.0,21.0,30.27,NNW,330,13.0,17.0,34,0.00,,,-99.99,,2013-03-14 16:51:00,
2013-03-14 13:01:00,48.0,21.0,30.27,NNW,330,13.0,17.0,34,0.00,,,-99.99,,2013-03-14 17:01:00,
2013-03-14 13:11:00,48.0,21.0,30.27,NNW,330,13.0,17.0,34,0.00,,,-99.99,,2013-03-14 17:11:00,
2013-03-14 13:22:00,48.0,23.0,30.26,NW,320,10.0,17.0,36,0.00,,,-99.99,,2013-03-14 17:22:00,
2013-03-14 13:31:00,48.0,23.0,30.25,NW,320,10.0,21.0,36,0.00,,,-99.99,,2013-03-14 17:31:00,
2013-03-14 13:41:00,48.0,23.0,30.25,NW,320,10.0,21.0,36,0.00,,,-99.99,,2013-03-14 17:41:00,
2013-03-14 13:52:00,50.0,23.0,30.25,NW,320,12.0,18.0,34,0.00,,,-99.99,,2013-03-14 17:52:00,
2013-03-14 14:01:00,50.0,23.0,30.25,NW,320,12.0,18.0,34,0.00,,,-99.99,,2013-03-14 18:01:00,
2013-03-14 14:11:00,50.0,23.0,30.25,NW,320,12.0,18.0,34,0.00,,,-99.99,,2013-03-14 18:11:00,
2013-03-14 14:21:00,50.0,25.0,30.25,NW,310,8.0,18.0,37,0.00,,,-99.99,,2013-03-14 18:21:00,
2013-03-14 14:31:00,52.0,25.0,30.24,NNW,340,10.0,17.0,34,0.00,,,-99.99,,2013-03-14 18:31:00,
2013-03-14 14:41:00,52.0,25.0,30.24,NNW,340,10.0,17.0,34,0.00,,,-99.99,,2013-03-14 18:41:00,
2013-03-14 14:52:00,52.0,25.0,30.24,NNW,340,10.0,17.0,34,0.00,,,-99.99,,2013-03-14 18:52:00,
2013-03-14 15:01:00,52.0,25.0,30.24,NNW,340,10.0,17.0,34,0.00,,,-99.99,,2013-03-14 19:01:00,
2013-03-14 15:21:00,54.0,25.0,30.23,NW,320,10.0,17.0,32,0.00,,,-99.99,,2013-03-14 19:21:00,
2013-03-14 15:31:00,54.0,25.0,30.23,NW,310,10.0,20.0,32,0.00,,,-99.99,,2013-03-14 19:31:00,
2013-03-14 15:41:00,54.0,25.0,30.23,NW,310,10.0,20.0,32,0.00,,,-99.99,,2013-03-14 19:41:00,
2013-03-14 16:01:00,54.0,23.0,30.21,WNW,300,10.0,17.0,30,0.00,,,-99.99,,2013-03-14 20:01:00,
2013-03-14 16:11:00,54.0,23.0,30.21,WNW,300,10.0,17.0,30,0.00,,,-99.99,,2013-03-14 20:11:00,
2013-03-14 16:21:00,54.0,25.0,30.20,NW,310,6.0,16.0,32,0.00,,,-99.99,,2013-03-14 20:21:00,
2013-03-14 16:31:00,54.0,25.0,30.20,WNW,300,8.0,-999.0,32,0.00,,,-99.99,,2013-03-14 20:31:00,
2013-03-14 16:41:00,54.0,25.0,30.20,WNW,300,8.0,-999.0,32,0.00,,,-99.99,,2013-03-14 20:41:00,
2013-03-14 16:51:00,54.0,25.0,30.19,WNW,300,8.0,18.0,32,0.00,,,-99.99,,2013-03-14 20:51:00,
2013-03-14 17:01:00,54.0,25.0,30.19,WNW,300,8.0,18.0,32,0.00,,,-99.99,,2013-03-14 21:01:00,
2013-03-14 17:21:00,55.0,25.0,30.18,WNW,290,9.0,16.0,30,0.00,,,-99.99,,2013-03-14 21:21:00,
2013-03-14 17:32:00,54.0,25.0,30.18,WNW,300,8.0,17.0,32,0.00,,,-99.99,,2013-03-14 21:32:00,
2013-03-14 17:43:00,54.0,25.0,30.18,WNW,300,8.0,17.0,32,0.00,,,-99.99,,2013-03-14 21:43:00,
2013-03-14 17:52:00,54.0,23.0,30.18,NNW,340,8.0,-999.0,30,0.00,,,-99.99,,2013-03-14 21:52:00,
2013-03-14 18:03:00,54.0,23.0,30.18,NNW,340,8.0,-999.0,30,0.00,,,-99.99,,2013-03-14 22:03:00,
2013-03-14 18:12:00,54.0,23.0,30.18,NNW,340,8.0,-999.0,30,0.00,,,-99.99,,2013-03-14 22:12:00,
2013-03-14 18:22:00,54.0,25.0,30.17,NW,320,7.0,-999.0,32,0.00,,,-99.99,,2013-03-14 22:22:00,
2013-03-14 18:32:00,54.0,25.0,30.17,NNW,340,8.0,-999.0,32,0.00,,,-99.99,,2013-03-14 22:32:00,
2013-03-14 18:41:00,54.0,25.0,30.17,NNW,340,8.0,-999.0,32,0.00,,,-99.99,,2013-03-14 22:41:00,
2013-03-14 18:52:00,54.0,25.0,30.18,NNW,330,7.0,-999.0,32,0.00,,,-99.99,,2013-03-14 22:52:00,
2013-03-14 19:01:00,54.0,25.0,30.18,NNW,330,7.0,-999.0,32,0.00,,,-99.99,,2013-03-14 23:01:00,
2013-03-14 19:21:00,52.0,25.0,30.19,NW,320,3.0,-999.0,34,0.00,,,-99.99,,2013-03-14 23:21:00,
2013-03-14 19:32:00,50.0,27.0,30.20,WNW,290,5.0,-999.0,39,0.00,,,-99.99,,2013-03-14 23:32:00,
2013-03-14 19:42:00,50.0,27.0,30.20,WNW,290,5.0,-999.0,39,0.00,,,-99.99,,2013-03-14 23:42:00,
2013-03-14 20:01:00,50.0,27.0,30.20,WNW,290,5.0,-999.0,39,0.00,,,-99.99,,2013-03-15 00:01:00,
2013-03-14 20:11:00,50.0,27.0,30.20,WNW,290,5.0,-999.0,39,0.00,,,-99.99,,2013-03-15 00:11:00,
2013-03-14 20:21:00,43.0,32.0,30.21,WSW,250,3.0,-999.0,65,0.00,,,-99.99,,2013-03-15 00:21:00,
2013-03-14 20:41:00,45.0,32.0,30.20,WSW,250,5.0,-999.0,61,0.00,,,-99.99,,2013-03-15 00:41:00,
2013-03-14 20:51:00,43.0,34.0,30.20,WSW,240,5.0,-999.0,70,0.00,,,-99.99,,2013-03-15 00:51:00,
2013-03-14 21:21:00,41.0,32.0,30.21,WSW,250,5.0,-999.0,70,0.00,,,-99.99,,2013-03-15 01:21:00,
2013-03-14 21:31:00,41.0,32.0,30.21,WSW,240,3.0,-999.0,70,0.00,,,-99.99,,2013-03-15 01:31:00,
2013-03-14 21:41:00,41.0,32.0,30.21,WSW,240,3.0,-999.0,70,0.00,,,-99.99,,2013-03-15 01:41:00,
2013-03-14 21:51:00,37.0,32.0,30.21,North,0,0.0,-999.0,80,0.00,,,-99.99,,2013-03-15 01:51:00,
2013-03-14 22:01:00,37.0,32.0,30.21,North,0,0.0,-999.0,80,0.00,,,-99.99,,2013-03-15 02:01:00,
2013-03-14 22:11:00,37.0,32.0,30.21,North,0,0.0,-999.0,80,0.00,,,-99.99,,2013-03-15 02:11:00,
2013-03-14 22:21:00,37.0,32.0,30.21,North,0,0.0,-999.0,80,0.00,,,-99.99,,2013-03-15 02:21:00,
2013-03-14 22:31:00,36.0,32.0,30.20,North,0,0.0,-999.0,86,0.00,,,-99.99,,2013-03-15 02:31:00,
2013-03-14 22:41:00,36.0,32.0,30.20,North,0,0.0,-999.0,86,0.00,,,-99.99,,2013-03-15 02:41:00,
2013-03-14 22:51:00,36.0,32.0,30.20,North,0,0.0,-999.0,86,0.00,,,-99.99,,2013-03-15 02:51:00,
2013-03-14 23:01:00,36.0,32.0,30.20,North,0,0.0,-999.0,86,0.00,,,-99.99,,2013-03-15 03:01:00,
2013-03-14 23:11:00,36.0,32.0,30.20,North,0,0.0,-999.0,86,0.00,,,-99.99,,2013-03-15 03:11:00,
2013-03-14 23:21:00,34.0,30.0,30.21,WSW,250,3.0,-999.0,86,0.00,,,-99.99,,2013-03-15 03:21:00,
2013-03-14 23:32:00,34.0,30.0,30.21,North,0,0.0,-999.0,86,0.00,,,-99.99,,2013-03-15 03:32:00,
2013-03-14 23:42:00,34.0,30.0,30.21,North,0,0.0,-999.0,86,0.00,,,-99.99,,2013-03-15 03:42:00,
2013-03-14 23:52:00,34.0,30.0,30.22,West,270,3.0,-999.0,86,0.00,,,-99.99,,2013-03-15 03:52:00,